NOAA 16 DEB, 41347

Orbit data source: Space-Track

NOAA 16 DEB, 41347 is space debris in SSO originally from a launch on Thu, 21 Sep 2000 UTC launched from the Air Force Western Test Range (AFWTR). Debris objects in space refer to the collection of defunct objects orbiting the Earth. Examples of debris include non-operational satellites, rocket bodies, and fragments generated from explosions, collisions, or faulty payload assembly.

Loading next visibility...
Identifier
41347, 2000-055HQ
Orbit
SSO
Country
Flag of USUS
Related business
Manufacturer
Unknown
Mission
Spacecraft
Bus & Motor
Unknown
Mass
Unknown
Launch date (UTC)
2000-09-21 (25 years ago)
Launch vehicle
Unknown
Launch site
Air Force Western Test Range (AFWTR)
Object type
Payload
Rocket body
Debris
Shape & HBR
Unknown shape, 0.1 m
Radar Cross Section
Small (<0.1 m²)

Expand to show TLE details & history
Last TLE update: 4 days ago

TLE from 4 days ago
0 NOAA 16 DEB
1 41347U 00055HQ  25283.16763411  .00005956  00000-0  22400-2 0  9993
2 41347  98.7140 354.2933 0017197  20.3793 339.8073 14.31803450501400
Epoch: 2025-10-10T04:01Z
TLE epoch observation values (Epoch: 2025-10-10T04:01:23.587Z)
Latitude
0.00003°
Longitude
-85.07234°
Altitude
777.077 km
Speed
7.471 km/s
True Right ascension
23h 37m 10s
True Declination
0° 00' 00"
Sunlit
Object was in full shadow at epoch
Visualization orbit readout
Latitude
Unknown
Longitude
Unknown
Altitude
Unknown
Speed
Unknown
Apparent Right ascension
Unknown
Apparent Declination
Unknown
Sunlit
N/A
Visualization observer readout
Local Sidereal Time
06:27:29
Azimuth
Unknown
Elevation
Unknown
Doppler factor
Unknown
Orbital elements
Apogee altitude
795.167 km
Perigee altitude
770.537 km
Semi-major axis
7,160.989 km
Eccentricity
0.00172
Inclination
98.714°
RAAN
354.2933°
Arg. of periapsis
20.3793°
True anomaly
339.73914°
Mean anomaly
339.8073°
Eccentric anomaly
339.77323°
Mean motion
3.58165 °/min
Orbital period
100.51 mins
BSTAR
0.00224
Loading maneuver chart data...
Computing Atmospheric mass density...
Loading historical data...
Loading historical data...
Loading historical data...
Loading historical data...
Loading historical data...
Loading historical data...
Loading historical data...

Documentation

Showing up to 5 results
|